Hourly Weather Roundup
Issued by NWS Central Illinois

Home | Current Version | Previous Version | Text Only | Print | Product List | Glossary On
Versions: 1 2 3 4 5 6 7 8 9 10 11 12 13 14 15 16 17 18 19 20 21 22 23 24 25 26 27 28 29 30 31 32 33 34 35 36 37 38 39 40 41 42 43 44 45 46 47 48 49 50
000
NZUS43 KILX 172310
HWRILX

AREA WEATHER ROUNDUP
NATIONAL WEATHER SERVICE, LINCOLN IL
500 PM CST WED DEC 17 2014


CITY           SKY/WX    TMP DP  RH WIND       PRES   REMARKS
BLOOMINGTON    CLOUDY    25  20  81 CALM      30.28R
CHAMPAIGN      CLOUDY    24  18  77 W7        30.28R WCI  16
DECATUR        CLOUDY    24  19  81 W6        30.30R WCI  17
FLORA          PTCLDY    31  26  81 N5        30.31R WCI  26
GALESBURG      CLEAR     25  19  79 W7        30.28R WCI  17
JACKSONVILLE   CLEAR     27  21  77 NW3       30.31S
LACON          CLOUDY    27  19  71 NW6       30.27S WCI  21
LAWRENCEVILLE  CLOUDY    30  23  75 N9        30.30S WCI  22
LITCHFIELD     CLEAR     28  24  82 NW3       30.29S
$$


CITY           SKY/WX    TMP DP  RH WIND       PRES   REMARKS
LINCOLN        PTCLDY    26  20  79 CALM      30.31R
MACOMB         CLEAR     26  21  83 W6        30.30S WCI  19
MATTOON        CLOUDY    24  19  81 NW9       30.29R WCI  14
MT CARMEL AP   CLOUDY    34  27  75 N6        30.30S WCI  29
OLNEY-NOBLE AP CLOUDY    30  25  80 CALM      30.31R
PARIS          CLOUDY    25  22  88 NW3       30.30S
PEORIA         PTCLDY    28  18  66 CALM      30.29R
PONTIAC        CLOUDY    28  22  79 NW7       30.28S WCI  20
RANTOUL        CLOUDY    27  21  79 W5        30.28S WCI  21
ROBINSON       CLOUDY    29  24  81 NW7       30.31S WCI  22
SPRINGFIELD    CLEAR     24  18  77 W6        30.31R WCI  17
TAYLORVILLE    PTCLDY    27  21  80 CALM      30.30S
$$

...REGIONAL REPORTS...


CITY           SKY/WX    TMP DP  RH WIND       PRES   REMARKS
CHICAGO O`HARE CLOUDY    25  16  68 NW9       30.24R WCI  15
KANKAKEE       CLOUDY    27  20  74 W14       30.27S WCI  16
MOLINE         CLEAR     25  15  66 NW9       30.28S WCI  15
MOUNT VERNON   MOCLDY    34  21  60 N3        30.30S
PITTSFIELD     CLEAR     29  21  73 CALM      30.31S
QUINCY         CLEAR     25  18  74 N3        30.30S
ROCKFORD       CLOUDY    24  16  71 NW8       30.28R WCI  15
$$


CITY           SKY/WX    TMP DP  RH WIND       PRES   REMARKS
BURLINGTON     PTCLDY    28  20  71 N6        30.28S WCI  22
CEDAR RAPIDS   CLEAR     21  15  78 NW6       30.28R WCI  13
DES MOINES     PTCLDY    26  15  63 W3        30.30R
KIRKSVILLE     CLEAR     26  21  81 NE7       30.28R WCI  18
OTTUMWA        CLEAR     22  16  78 N6        30.28S WCI  14
ST LOUIS       MOCLDY    36  24  62 NE6       30.28F WCI  31
$$


CITY           SKY/WX    TMP DP  RH WIND       PRES   REMARKS
TERRE HAUTE    CLOUDY    25  19  78 NW9       30.30S WCI  15
EVANSVILLE     CLOUDY    35  26  69 N3        30.29F
INDIANAPOLIS   CLOUDY    24  19  81 W12       30.26R WCI  13
LAFAYETTE      CLOUDY    24  19  81 W8        30.28R WCI  15
MADISON        PTCLDY    21  14  74 NW3       30.24R
MILWAUKEE      MOCLDY    25  14  63 NW15      30.22R WCI  13
$$





USA.gov is the U.S. government's official web portal to all federal, state and local government web resources and services.